UTOFI Weather Reports


Display with metric or nautical units.
time (UTC)temp
F
wind
direction
speed
MPH
gust
MPH
rain 1hr
in
rain 24hr
in
rain mn
in
humidity
%
barometer
mb
20260506022725 40 277 10.0 12.0 0.00 0.00 0.00 87 1011.5
20260506020725 40 280 8.0 10.0 0.00 0.00 0.00 89 1011.4
20260506014725 41 268 10.0 11.0 0.00 0.00 0.00 85 1011.2
20260506012725 41 269 11.0 12.0 0.00 0.00 0.00 86 1011.0
20260506010726 41 264 11.0 13.0 0.00 0.00 0.00 83 1010.7
20260506004725 41 269 11.0 12.0 0.00 0.00 0.00 85 1010.5
20260506002725 41 269 9.0 10.0 0.00 0.00 0.00 87 1010.4
20260506000725 41 279 9.0 11.0 0.00 0.00 0.00 85 1010.3
20260505234725 40 290 10.0 13.0 0.00 0.00 0.00 82 1010.2
20260505232725 40 286 9.0 10.0 0.00 0.00 0.00 85 1010.2
20260505230725 40 282 8.0 11.0 0.00 0.00 0.00 86 1010.0
20260505224725 41 275 9.0 11.0 0.00 0.00 0.00 88 1010.0
20260505222725 41 265 11.0 12.0 0.00 0.00 0.00 90 1010.0
20260505220725 41 265 9.0 11.0 0.00 0.00 0.00 91 1009.9
20260505214725 41 273 9.0 11.0 0.00 0.00 0.00 90 1009.9
20260505212725 42 276 9.0 11.0 0.00 0.00 0.00 87 1009.8
20260505210724 41 277 9.0 12.0 0.00 0.00 0.00 88 1009.7
20260505204724 41 253 9.0 11.0 0.00 0.00 0.00 91 1009.5
20260505202725 41 245 9.0 11.0 0.00 0.00 0.00 91 1009.3
20260505200724 41 242 12.0 14.0 0.00 0.00 0.00 91 1009.2
20260505194723 41 253 12.0 14.0 0.00 0.00 0.00 91 1009.2
20260505192724 41 248 12.0 14.0 0.00 0.00 0.00 91 1009.3
20260505190724 41 246 11.0 13.0 0.00 0.00 0.00 91 1009.2
20260505184724 41 244 13.0 15.0 0.00 0.00 0.00 90 1009.0
20260505182723 41 245 13.0 15.0 0.00 0.00 0.00 89 1008.8
20260505180724 42 240 13.0 16.0 0.00 0.00 0.00 87 1008.7
20260505174724 42 240 15.0 18.0 0.00 0.00 0.00 86 1008.5
20260505172723 43 242 14.0 17.0 0.00 0.00 0.00 84 1008.4
20260505170723 43 245 13.0 15.0 0.00 0.00 0.00 82 1008.5
20260505164723 44 251 12.0 14.0 0.00 0.00 0.00 77 1008.5
20260505162723 44 252 11.0 13.0 0.00 0.00 0.00 77 1008.6
20260505160723 44 250 11.0 13.0 0.00 0.00 0.00 76 1008.5
20260505152723 46 303 5.0 7.0 0.00 0.00 0.00 63 1008.4
20260505150723 45 279 5.0 8.0 0.00 0.00 0.00 70 1008.5
20260505124722 46 247 9.0 11.0 0.00 0.00 0.00 67 1007.6
20260505122722 46 248 9.0 11.0 0.00 0.00 0.00 72 1007.4
20260505120722 46 251 9.0 11.0 0.00 0.00 0.00 75 1007.3
20260505114722 46 265 9.0 12.0 0.00 0.00 0.00 72 1007.2
20260505112722 45 269 12.0 15.0 0.00 0.00 0.00 75 1007.1
20260505110722 45 274 13.0 16.0 0.00 0.00 0.00 74 1007.0
20260505100722 46 285 16.0 19.0 0.00 0.00 0.00 71 1006.5
20260505094721 44 271 16.0 19.0 0.00 0.02 0.00 79 1006.4
20260505092721 44 270 14.0 17.0 0.00 0.02 0.00 82 1006.2
20260505090722 44 282 12.0 16.0 0.00 0.02 0.00 84 1005.9
20260505084723 45 307 9.0 13.0 0.00 0.04 0.00 74 1005.7
20260505082722 45 327 10.0 15.0 0.00 0.04 0.00 74 1005.5
20260505080722 45 322 11.0 15.0 0.00 0.04 0.00 76 1005.3
20260505074721 45 290 11.0 14.0 0.00 0.08 0.00 74 1005.1
20260505072721 45 306 9.0 13.0 0.00 0.08 0.00 74 1004.7
20260505070721 43 307 12.0 17.0 0.00 0.08 0.00 77 1004.4
20260505064721 44 306 13.0 18.0 0.00 0.15 0.00 78 1004.0
20260505062721 44 306 10.0 13.0 0.00 0.15 0.00 76 1003.5
20260505060721 44 313 10.0 15.0 0.00 0.15 0.00 81 1003.3
20260505054721 44 305 13.0 17.0 0.00 0.15 0.00 82 1003.0
20260505052721 43 304 16.0 21.0 0.00 0.15 0.00 84 1002.8
20260505050720 44 284 23.0 29.0 0.00 0.15 0.00 83 1002.4
20260505040720 44 251 26.0 30.0 0.00 0.15 0.00 78 1001.4
20260505034721 44 248 26.0 31.0 0.00 0.15 0.00 78 1001.3
20260505032720 44 245 25.0 30.0 0.00 0.15 0.00 79 1001.3
20260505030721 44 242 24.0 28.0 0.00 0.15 0.00 79 1001.1
20260505024721 43 236 23.0 26.0 0.00 0.15 0.00 80 1001.1